Bangor, ME

3:06 PM EDT on September 29, 2016 (GMT -0400)
Bangor International

Weather History for KBGR - August, 2013

Change the Weather History Date:

Saturday, August 24, 2013

  Actual Average Record
Temperature  
Mean Temperature 62 °F 66 °F  
Max Temperature 78 °F 77 °F 91 °F (1948)
Min Temperature 45 °F 55 °F 38 °F (1945)
Degree Days  
Heating Degree Days 3 2  
Month to date heating degree days 14 27  
Since 1 June heating degree days 122 157  
Since 1 July heating degree days 22 50  
Cooling Degree Days 0 3  
Month to date cooling degree days 45 86  
Year to date cooling degree days 295 276  
Since 1 June cooling degree days 287 270  
Growing Degree Days 12 (Base 50)    
Moisture  
Dew Point 46 °F    
Average Humidity 61    
Maximum Humidity 93    
Minimum Humidity 29    
Precipitation  
Precipitation 0.00 in 0.09 in 1.65 in (1933)
Month to date precipitation 3.27 2.36  
Year to date precipitation 23.76 25.63  
Snow  
Snow 0.00 in 0.00 in 0.00 in (2002)
Month to date snowfall 0.0 0.0  
Since 1 June snowfall 0.0 0.0  
Since 1 July snowfall 0.0 0.0  
Snow Depth 0.00 in    
Sea Level Pressure  
Sea Level Pressure 30.25 in    
Wind  
Wind Speed 4 mph (North)    
Max Wind Speed 14 mph    
Max Gust Speed 20 mph    
Visibility 10 miles    
Events      
T = Trace of Precipitation, MM = Missing Value Source: NWS Daily Summary

Daily Weather History Graph

Daily Weather History Graph

Search for Another Location

Airport or City:

Trip Planner

Search our weather history database for the weather conditions in past years. The results will help you decide how hot, cold, wet, or windy it might be!

Date:

Astronomy

Aug. 24, 2013 Rise Set
Actual Time 5:48 AM EDT 7:25 PM EDT
Civil Twilight 5:17 AM EDT 7:56 PM EDT
Nautical Twilight 4:39 AM EDT 8:34 PM EDT
Astronomical Twilight 3:59 AM EDT 9:14 PM EDT
Moon 9:04 PM EDT (8/24) 9:57 AM EDT (8/24)
Length of Visible Light 14h 39m
Length of Day
13h 37m
Waning Gibbous, 84% of the Moon is Illuminated
Aug 24
Waning Gibbous
Aug 28
Last Quarter
Sep 5
New
Sep 12
First Quarter
Sep 19
Full

Hourly Weather History & Observations

Time (EDT) Temp. Dew Point Humidity Pressure Visibility Wind Dir Wind Speed Gust Speed Precip Events Conditions
12:53 AM 54.0 °F 46.0 °F 75% 30.16 in 10.0 mi North 6.9 mph - N/A   Clear
1:53 AM 52.0 °F 45.0 °F 77% 30.17 in 10.0 mi North 3.5 mph - N/A   Clear
2:53 AM 51.1 °F 45.0 °F 80% 30.17 in 10.0 mi Calm Calm - N/A   Clear
3:53 AM 46.9 °F 44.1 °F 90% 30.19 in 10.0 mi Calm Calm - N/A   Clear
4:53 AM 46.9 °F 43.0 °F 86% 30.21 in 10.0 mi Calm Calm - N/A   Clear
5:53 AM 46.9 °F 45.0 °F 93% 30.23 in 10.0 mi Calm Calm - N/A   Partly Cloudy
6:53 AM 50.0 °F 46.9 °F 89% 30.25 in 10.0 mi Calm Calm - N/A   Partly Cloudy
7:53 AM 55.9 °F 48.0 °F 75% 30.28 in 10.0 mi Calm Calm - N/A   Partly Cloudy
8:53 AM 62.1 °F 48.9 °F 62% 30.28 in 10.0 mi North 3.5 mph - N/A   Partly Cloudy
9:53 AM 66.9 °F 48.0 °F 51% 30.29 in 10.0 mi North 3.5 mph - N/A   Partly Cloudy
10:53 AM 70.0 °F 46.0 °F 42% 30.29 in 10.0 mi NNE 6.9 mph - N/A   Partly Cloudy
11:53 AM 72.0 °F 45.0 °F 38% 30.28 in 10.0 mi NW 9.2 mph - N/A   Partly Cloudy
12:53 PM 75.0 °F 43.0 °F 32% 30.26 in 10.0 mi North 10.4 mph 19.6 mph N/A   Partly Cloudy
1:53 PM 75.9 °F 42.1 °F 30% 30.26 in 10.0 mi North 10.4 mph - N/A   Partly Cloudy
2:53 PM 77.0 °F 42.1 °F 29% 30.25 in 10.0 mi NNE 10.4 mph 17.3 mph N/A   Partly Cloudy
3:53 PM 77.0 °F 42.1 °F 29% 30.25 in 10.0 mi North 9.2 mph - N/A   Partly Cloudy
4:53 PM 77.0 °F 43.0 °F 30% 30.24 in 10.0 mi North 6.9 mph - N/A   Partly Cloudy
5:53 PM 77.0 °F 42.1 °F 29% 30.24 in 10.0 mi NNE 4.6 mph - N/A   Partly Cloudy
6:53 PM 66.0 °F 50.0 °F 56% 30.25 in 10.0 mi WNW 3.5 mph - N/A   Partly Cloudy
7:53 PM 61.0 °F 51.1 °F 70% 30.26 in 10.0 mi Calm Calm - N/A   Clear
8:53 PM 59.0 °F 51.1 °F 75% 30.27 in 10.0 mi South 3.5 mph - N/A   Clear
9:53 PM 57.9 °F 52.0 °F 81% 30.29 in 10.0 mi SW 4.6 mph - N/A   Clear
10:53 PM 55.9 °F 52.0 °F 87% 30.29 in 10.0 mi Calm Calm - N/A   Clear
11:53 PM 55.0 °F 51.1 °F 86% 30.29 in 10.0 mi Calm Calm - N/A   Clear